This is the latest recevied weather packets stored in our database for station/object RK6MF-10. If no packets are shown the sender has not sent any weather packets the latest 10 day(s).
| Time | Temp. | Humidity | Pressure | Rain* | Wind** | Luminosity | Snow |
|---|---|---|---|---|---|---|---|
| 1777998769 | 13.33° C | 61% | 1009.1 hPa | - | - | - | - |
| 1777997868 | 13.89° C | 58% | 1009 hPa | - | - | - | - |
| 1777996968 | 13.89° C | 55% | 1009 hPa | - | - | - | - |
| 1777996068 | 14.44° C | 52% | 1008.8 hPa | - | - | - | - |
| 1777995168 | 15° C | 50% | 1008.9 hPa | - | - | - | - |
| 1777994267 | 16.11° C | 50% | 1008.8 hPa | - | - | - | - |
| 1777993367 | 16.11° C | 48% | 1008.6 hPa | - | - | - | - |
| 1777992467 | 16.67° C | 47% | 1008.6 hPa | - | - | - | - |
| 1777991567 | 16.67° C | 46% | 1008.6 hPa | - | - | - | - |
| 1777990667 | 17.22° C | 46% | 1008.7 hPa | - | - | - | - |
| 1777988869 | 17.22° C | 46% | 1008.8 hPa | - | - | - | - |
| 1777987969 | 17.78° C | 43% | 1008.8 hPa | - | - | - | - |
| 1777987069 | 17.22° C | 42% | 1008.9 hPa | - | - | - | - |
| 1777986169 | 17.78° C | 41% | 1009 hPa | - | - | - | - |
| 1777985269 | 17.78° C | 41% | 1009 hPa | - | - | - | - |
| 1777984369 | 17.78° C | 41% | 1009 hPa | - | - | - | - |
| 1777983469 | 17.78° C | 41% | 1009.1 hPa | - | - | - | - |
| 1777982568 | 16.67° C | 40% | 1009 hPa | - | - | - | - |
| 1777981668 | 16.67° C | 40% | 1009 hPa | - | - | - | - |
| 1777980768 | 17.22° C | 40% | 1009.1 hPa | - | - | - | - |
| 1777979868 | 17.22° C | 38% | 1009.2 hPa | - | - | - | - |
| 1777978968 | 18.33° C | 38% | 1009.3 hPa | - | - | - | - |
| 1777978068 | 17.78° C | 39% | 1009.3 hPa | - | - | - | - |
| 1777977168 | 17.78° C | 39% | 1009.3 hPa | - | - | - | - |
| 1777976268 | 17.78° C | 38% | 1009.2 hPa | - | - | - | - |
* Rain since midnight (hover to see other rain measurements)
** Current wind speed in m/s (hover to see current wind gust speed)